START_TIME,STEP,MOV.,M15,t_acc.,M20,t_acc.
1979-03-03 15:00:33.390 ,1,1,0.,24.0,0.,24.0
1979-03-03 15:00:57.390 ,2,1,0.,24.0,0.,24.0
1979-03-03 15:01:21.390 ,3,1,0.,24.0,0.,24.0
1979-03-03 15:01:45.390 ,4,1,0.,24.0,0.,24.0
1979-03-03 15:02:09.390 ,5,1,0.,24.0,0.,24.0
1979-03-03 15:02:33.390 ,6,1,0.,24.0,0.,24.0
1979-03-03 15:02:57.390 ,7,1,0.,24.0,0.,24.0
1979-03-03 15:03:21.390 ,7,1,1.,24.0,0.,24.0
1979-03-03 15:03:45.390 ,6,1,0.,24.0,0.,24.0
1979-03-03 15:04:09.390 ,5,1,1.,24.0,0.,24.0
1979-03-03 15:04:33.390 ,4,1,0.,24.0,0.,24.0
1979-03-03 15:04:57.390 ,3,1,0.,24.0,0.,24.0
1979-03-03 15:05:21.390 ,2,1,0.,24.0,0.,24.0
1979-03-03 15:05:45.390 ,1,1,0.,24.0,0.,24.0
1979-03-03 15:06:09.390 ,0,1,1.,24.0,0.,24.0
1979-03-03 15:06:33.390 ,0,1,0.,24.0,0.,24.0
1979-03-03 15:06:57.390 ,1,1,0.,24.0,0.,24.0
1979-03-03 15:07:21.390 ,2,1,0.,24.0,0.,24.0
1979-03-03 15:07:45.390 ,3,1,0.,24.0,0.,24.0
1979-03-03 15:08:09.390 ,4,1,0.,24.0,0.,24.0
1979-03-03 15:08:33.390 ,5,1,0.,24.0,0.,24.0
1979-03-03 15:08:57.390 ,6,1,0.,24.0,0.,24.0
1979-03-03 15:09:21.390 ,7,1,0.,24.0,0.,24.0
1979-03-03 15:09:45.390 ,7,1,0.,24.0,0.,24.0
1979-03-03 15:10:09.390 ,6,1,0.,24.0,0.,24.0
1979-03-03 15:10:33.390 ,5,1,0.,24.0,0.,24.0
1979-03-03 15:10:57.390 ,4,1,0.,24.0,0.,24.0
1979-03-03 15:11:21.390 ,3,1,0.,24.0,0.,24.0
1979-03-03 15:11:45.390 ,2,1,0.,24.0,0.,24.0
1979-03-03 15:12:09.390 ,1,1,0.,24.0,0.,24.0
1979-03-03 15:12:33.390 ,0,1,1.,24.0,0.,24.0
1979-03-03 15:12:57.390 ,0,0,,0,,0
1979-03-03 15:13:21.390 ,0,0,,0,,0
1979-03-03 15:17:43.590 ,0,0,,0,,0
1979-03-03 15:17:45.390 ,0,0,0.,24.0,0.,24.0
1979-03-03 15:18:09.390 ,2,1,0.,24.0,0.,24.0
1979-03-03 15:18:33.390 ,1,1,0.,24.0,0.,24.0
1979-03-03 15:18:57.390 ,0,1,0.,24.0,0.,24.0
1979-03-03 15:19:21.390 ,0,1,0.,24.0,0.,24.0
1979-03-03 15:19:45.390 ,1,1,0.,24.0,0.,24.0
1979-03-03 15:20:09.390 ,2,1,0.,24.0,0.,24.0
1979-03-03 15:20:33.390 ,3,1,1.,24.0,0.,24.0
1979-03-03 15:20:57.390 ,4,1,0.,24.0,0.,24.0
1979-03-03 15:21:21.390 ,5,1,1.,24.0,0.,24.0
1979-03-03 15:21:45.390 ,6,1,0.,24.0,0.,24.0
1979-03-03 15:22:09.390 ,7,1,0.,24.0,0.,24.0
1979-03-03 15:22:33.390 ,7,1,0.,24.0,0.,24.0
1979-03-03 15:22:57.390 ,6,1,0.,24.0,0.,24.0
1979-03-03 15:23:21.390 ,0,0,0.,24.0,0.,24.0
1979-03-03 15:23:45.390 ,4,1,0.,24.0,0.,24.0
1979-03-03 15:24:09.390 ,3,1,0.,24.0,0.,24.0
1979-03-03 15:24:33.390 ,2,1,0.,24.0,0.,24.0
1979-03-03 15:24:57.390 ,1,1,0.,24.0,0.,24.0
1979-03-03 15:25:21.390 ,0,1,0.,24.0,0.,24.0
1979-03-03 15:25:45.390 ,0,1,0.,24.0,0.,24.0
1979-03-03 15:26:09.390 ,1,1,0.,24.0,0.,24.0
1979-03-03 15:26:33.390 ,2,1,0.,24.0,0.,24.0
1979-03-03 15:26:57.390 ,3,1,0.,24.0,0.,24.0
1979-03-03 15:27:21.390 ,4,1,0.,24.0,0.,24.0
1979-03-03 15:27:45.390 ,5,1,0.,24.0,0.,24.0
1979-03-03 15:28:09.390 ,6,1,2.,24.0,0.,24.0
1979-03-03 15:28:33.390 ,7,1,0.,24.0,0.,24.0
1979-03-03 15:28:57.390 ,7,1,0.,24.0,0.,24.0
1979-03-03 15:29:21.390 ,6,1,0.,24.0,0.,24.0
1979-03-03 15:29:45.390 ,5,1,1.,24.0,0.,24.0
1979-03-03 15:30:09.390 ,4,1,0.,24.0,0.,24.0
1979-03-03 15:30:33.390 ,3,1,0.,24.0,0.,24.0
1979-03-03 15:30:57.390 ,2,1,0.,24.0,0.,24.0
1979-03-03 15:31:21.390 ,1,1,0.,24.0,0.,24.0
1979-03-03 15:31:45.390 ,0,1,1.,24.0,0.,24.0
1979-03-03 15:32:09.390 ,0,1,0.,24.0,0.,24.0
1979-03-03 15:32:33.390 ,1,1,0.,24.0,0.,24.0
1979-03-03 15:32:57.390 ,2,1,0.,24.0,0.,24.0
1979-03-03 15:33:21.390 ,3,1,0.,24.0,0.,24.0
1979-03-03 15:33:45.390 ,4,1,1.,24.0,0.,24.0
1979-03-03 15:34:09.390 ,5,1,0.,24.0,0.,24.0
1979-03-03 15:34:33.390 ,6,1,0.,24.0,0.,24.0
1979-03-03 15:34:57.390 ,7,1,0.,24.0,0.,24.0
1979-03-03 15:35:21.390 ,7,1,0.,24.0,0.,24.0
1979-03-03 15:35:45.390 ,6,1,0.,24.0,0.,24.0
1979-03-03 15:36:09.390 ,5,1,0.,24.0,0.,24.0
1979-03-03 15:36:33.390 ,4,1,0.,24.0,0.,24.0
1979-03-03 15:36:57.390 ,3,1,0.,24.0,0.,24.0
1979-03-03 15:37:21.390 ,2,1,0.,24.0,0.,24.0
1979-03-03 15:37:45.390 ,1,1,0.,24.0,0.,24.0
1979-03-03 15:38:09.390 ,0,1,0.,24.0,0.,24.0
1979-03-03 15:38:33.390 ,0,1,0.,24.0,0.,24.0
1979-03-03 15:38:57.390 ,1,1,0.,24.0,0.,24.0
1979-03-03 15:39:21.390 ,2,1,0.,24.0,0.,24.0
1979-03-03 15:39:45.390 ,3,1,0.,24.0,0.,24.0
1979-03-03 15:40:09.390 ,4,1,0.,24.0,0.,24.0
1979-03-03 15:40:33.390 ,5,1,0.,24.0,0.,24.0
1979-03-03 15:40:57.390 ,6,1,0.,24.0,0.,24.0
1979-03-03 15:41:21.390 ,7,1,0.,24.0,0.,24.0
1979-03-03 15:41:45.390 ,7,1,0.,24.0,0.,24.0
1979-03-03 15:42:09.390 ,6,1,0.,24.0,0.,24.0
1979-03-03 15:42:33.390 ,5,1,0.,24.0,0.,24.0
1979-03-03 15:42:57.390 ,4,1,0.,24.0,0.,24.0
1979-03-03 15:43:21.390 ,3,1,0.,24.0,0.,24.0
1979-03-03 15:43:45.390 ,2,1,0.,24.0,0.,24.0
1979-03-03 15:44:09.390 ,1,1,0.,24.0,0.,24.0
1979-03-03 15:44:33.390 ,0,1,0.,24.0,0.,24.0
1979-03-03 15:44:57.390 ,0,1,0.,24.0,0.,24.0
1979-03-03 15:45:21.390 ,1,1,0.,24.0,0.,24.0
1979-03-03 15:45:45.390 ,2,1,0.,24.0,0.,24.0
1979-03-03 15:46:09.390 ,3,1,0.,24.0,0.,24.0
1979-03-03 15:46:33.390 ,4,1,0.,24.0,0.,24.0
1979-03-03 15:46:57.390 ,5,1,0.,24.0,0.,24.0
1979-03-03 15:47:21.390 ,6,1,0.,24.0,0.,24.0
1979-03-03 15:47:45.390 ,7,1,0.,24.0,0.,24.0
1979-03-03 15:48:09.390 ,7,1,0.,24.0,0.,24.0
1979-03-03 15:48:33.390 ,6,1,0.,24.0,0.,24.0
1979-03-03 15:48:57.390 ,5,1,0.,24.0,0.,24.0
1979-03-03 15:49:21.390 ,4,1,0.,24.0,0.,24.0
1979-03-03 15:49:45.390 ,3,1,0.,24.0,0.,24.0
1979-03-03 15:50:09.390 ,2,1,0.,24.0,0.,24.0
1979-03-03 15:50:33.390 ,1,1,0.,24.0,0.,24.0
1979-03-03 15:50:57.390 ,0,1,0.,24.0,0.,24.0
1979-03-03 15:51:21.390 ,0,1,0.,24.0,0.,24.0
1979-03-03 15:51:45.390 ,1,1,0.,24.0,0.,24.0
1979-03-03 15:52:09.390 ,2,1,0.,24.0,0.,24.0
1979-03-03 15:52:33.390 ,3,1,0.,24.0,0.,24.0
1979-03-03 15:52:57.390 ,4,1,0.,24.0,0.,24.0
1979-03-03 15:53:21.390 ,5,1,0.,24.0,0.,24.0
1979-03-03 15:53:45.390 ,6,1,0.,24.0,0.,24.0
1979-03-03 15:54:09.390 ,7,1,0.,24.0,0.,24.0
1979-03-03 15:54:33.390 ,7,1,0.,24.0,0.,24.0
1979-03-03 15:54:57.390 ,6,1,0.,24.0,0.,24.0
1979-03-03 15:55:21.390 ,5,1,0.,24.0,0.,24.0
1979-03-03 15:55:45.390 ,4,1,0.,24.0,0.,24.0
1979-03-03 15:56:09.390 ,3,1,0.,24.0,0.,24.0
1979-03-03 15:56:33.390 ,2,1,0.,24.0,0.,24.0
1979-03-03 15:56:57.390 ,1,1,0.,24.0,0.,24.0
1979-03-03 15:57:21.390 ,0,1,0.,24.0,0.,24.0
1979-03-03 15:57:45.390 ,0,1,0.,24.0,0.,24.0
1979-03-03 15:58:09.390 ,1,1,0.,24.0,0.,24.0
1979-03-03 15:58:33.390 ,2,1,0.,24.0,0.,24.0
1979-03-03 15:58:57.390 ,3,1,0.,24.0,0.,24.0
1979-03-03 15:59:21.390 ,4,1,0.,24.0,0.,24.0
1979-03-03 15:59:45.390 ,5,1,1.,24.0,0.,24.0
1979-03-03 16:00:09.390 ,6,1,1.,24.0,0.,24.0
1979-03-03 16:00:33.390 ,7,1,1.,24.0,0.,24.0
1979-03-03 16:00:57.390 ,7,1,0.,24.0,0.,24.0
1979-03-03 16:01:21.390 ,6,1,0.,24.0,0.,24.0
1979-03-03 16:01:45.390 ,5,1,1.,24.0,0.,24.0
1979-03-03 16:02:09.390 ,4,1,0.,24.0,0.,24.0
1979-03-03 16:02:33.390 ,3,1,0.,24.0,0.,24.0
1979-03-03 16:02:57.390 ,2,1,0.,24.0,0.,24.0
1979-03-03 16:03:21.390 ,1,1,0.,24.0,0.,24.0
1979-03-03 16:03:45.390 ,0,1,0.,24.0,0.,24.0
1979-03-03 16:04:09.390 ,0,1,0.,24.0,0.,24.0
1979-03-03 16:04:33.390 ,1,1,0.,24.0,0.,24.0
1979-03-03 16:04:57.390 ,2,1,0.,24.0,0.,24.0
1979-03-03 16:05:21.390 ,0,0,0.,24.0,0.,24.0
1979-03-03 16:06:12.390 ,0,0,0.,24.0,0.,24.0
1979-03-03 16:06:33.390 ,6,1,0.,24.0,0.,24.0
1979-03-03 16:06:57.390 ,7,1,0.,24.0,0.,24.0
1979-03-03 16:07:21.390 ,7,1,0.,24.0,0.,24.0
1979-03-03 16:07:45.390 ,6,1,0.,24.0,0.,24.0
1979-03-03 16:08:09.390 ,5,1,0.,24.0,0.,24.0
1979-03-03 16:08:33.390 ,4,1,0.,24.0,0.,24.0
1979-03-03 16:08:57.390 ,3,1,0.,24.0,0.,24.0
1979-03-03 16:09:21.390 ,2,1,0.,24.0,0.,24.0
1979-03-03 16:09:45.390 ,1,1,0.,24.0,0.,24.0
1979-03-03 16:10:09.390 ,0,1,0.,24.0,0.,24.0
1979-03-03 16:10:33.390 ,0,1,0.,24.0,0.,24.0
1979-03-03 16:10:57.390 ,1,1,1.,24.0,0.,24.0
1979-03-03 16:11:21.390 ,2,1,0.,24.0,0.,24.0
1979-03-03 16:11:45.390 ,3,1,0.,24.0,0.,24.0
1979-03-03 16:12:09.390 ,4,1,0.,24.0,0.,24.0
1979-03-03 16:12:33.390 ,5,1,1.,24.0,0.,24.0
1979-03-03 16:12:57.390 ,6,1,0.,24.0,0.,24.0
1979-03-03 16:13:21.390 ,7,1,0.,24.0,0.,24.0
1979-03-03 16:13:45.390 ,7,1,0.,24.0,0.,24.0
1979-03-03 16:14:09.390 ,6,1,0.,24.0,0.,24.0
1979-03-03 16:14:33.390 ,5,1,0.,24.0,0.,24.0
1979-03-03 16:14:57.390 ,4,1,0.,24.0,0.,24.0
1979-03-03 16:15:21.390 ,3,1,0.,24.0,0.,24.0
1979-03-03 16:15:45.390 ,2,1,0.,24.0,0.,24.0
1979-03-03 16:16:09.390 ,1,1,0.,24.0,0.,24.0
1979-03-03 16:16:33.390 ,0,0,,0,,0
1979-03-03 16:17:27.390 ,0,0,0.,24.0,0.,24.0
1979-03-03 16:17:45.390 ,2,1,0.,24.0,0.,24.0
1979-03-03 16:18:09.390 ,3,1,0.,24.0,0.,24.0
1979-03-03 16:18:33.390 ,4,1,0.,24.0,0.,24.0
1979-03-03 16:18:57.390 ,5,1,0.,24.0,0.,24.0
1979-03-03 16:19:21.390 ,6,1,0.,24.0,0.,24.0
1979-03-03 16:19:45.390 ,7,1,0.,24.0,0.,24.0
1979-03-03 16:20:09.390 ,7,1,0.,24.0,0.,24.0
1979-03-03 16:20:33.390 ,6,1,0.,24.0,0.,24.0
1979-03-03 16:20:57.390 ,5,1,0.,24.0,0.,24.0
1979-03-03 16:21:21.390 ,4,1,0.,24.0,0.,24.0
1979-03-03 16:21:45.390 ,3,1,0.,24.0,0.,24.0
1979-03-03 16:22:09.390 ,2,1,0.,24.0,0.,24.0
1979-03-03 16:22:33.390 ,1,1,0.,24.0,0.,24.0
1979-03-03 16:22:57.390 ,0,1,0.,24.0,0.,24.0
1979-03-03 16:23:21.390 ,0,1,0.,24.0,0.,24.0
1979-03-03 16:23:45.390 ,1,1,0.,24.0,0.,24.0
1979-03-03 16:24:09.390 ,2,1,0.,24.0,0.,24.0
1979-03-03 16:24:33.390 ,3,1,0.,24.0,0.,24.0
1979-03-03 16:24:57.390 ,4,1,0.,24.0,0.,24.0
1979-03-03 16:25:21.390 ,5,1,0.,24.0,0.,24.0
1979-03-03 16:25:45.390 ,6,1,0.,24.0,0.,24.0
1979-03-03 16:26:09.390 ,7,1,0.,24.0,0.,24.0
1979-03-03 16:26:33.390 ,7,1,1.,24.0,0.,24.0
1979-03-03 16:26:57.390 ,6,1,0.,24.0,0.,24.0
1979-03-03 16:27:21.390 ,5,1,0.,24.0,0.,24.0
1979-03-03 16:27:45.390 ,4,1,0.,24.0,0.,24.0
1979-03-03 16:28:09.390 ,3,1,0.,24.0,0.,24.0
1979-03-03 16:28:33.390 ,2,1,0.,24.0,0.,24.0
1979-03-03 16:28:57.390 ,1,1,0.,24.0,0.,24.0
1979-03-03 16:29:21.390 ,0,1,0.,24.0,0.,24.0
1979-03-03 16:29:45.390 ,0,1,1.,24.0,0.,24.0
1979-03-03 16:30:09.390 ,1,1,0.,24.0,0.,24.0
1979-03-03 16:30:33.390 ,2,1,0.,24.0,0.,24.0
1979-03-03 16:30:57.390 ,3,1,0.,24.0,0.,24.0
1979-03-03 16:31:21.390 ,4,1,0.,24.0,0.,24.0
1979-03-03 16:31:45.390 ,5,1,0.,24.0,0.,24.0
1979-03-03 16:32:09.390 ,6,1,0.,24.0,0.,24.0
1979-03-03 16:32:33.390 ,7,1,0.,24.0,0.,24.0
1979-03-03 16:32:57.390 ,7,1,0.,24.0,0.,24.0
1979-03-03 16:33:21.390 ,6,1,0.,24.0,0.,24.0
1979-03-03 16:33:45.390 ,5,1,0.,24.0,0.,24.0
1979-03-03 16:34:09.390 ,0,0,0.,24.0,0.,24.0
1979-03-03 16:37:06.990 ,0,0,0.,24.0,0.,24.0
1979-03-03 16:37:21.390 ,0,0,0.,24.0,0.,24.0
1979-03-03 16:37:45.390 ,4,1,0.,24.0,0.,24.0
1979-03-03 16:38:09.390 ,5,1,0.,24.0,0.,24.0
1979-03-03 16:38:33.390 ,6,1,0.,24.0,0.,24.0
1979-03-03 16:38:57.390 ,7,1,0.,24.0,0.,24.0
1979-03-03 16:39:21.390 ,7,1,0.,24.0,0.,24.0
1979-03-03 16:39:45.390 ,6,1,0.,24.0,0.,24.0
1979-03-03 16:40:09.390 ,5,1,0.,24.0,0.,24.0
1979-03-03 16:40:33.390 ,4,1,0.,24.0,0.,24.0
1979-03-03 16:40:57.390 ,3,1,0.,24.0,0.,24.0
1979-03-03 16:41:21.390 ,2,1,0.,24.0,0.,24.0
1979-03-03 16:41:45.390 ,1,1,0.,24.0,0.,24.0
1979-03-03 16:42:09.390 ,0,1,0.,24.0,0.,24.0
1979-03-03 16:42:33.390 ,0,1,0.,24.0,0.,24.0
1979-03-03 16:42:57.390 ,1,1,0.,24.0,0.,24.0
1979-03-03 16:43:21.390 ,2,1,0.,24.0,0.,24.0
1979-03-03 16:43:45.390 ,3,1,0.,24.0,0.,24.0
1979-03-03 16:44:09.390 ,4,1,0.,24.0,0.,24.0
1979-03-03 16:44:33.390 ,5,1,0.,24.0,0.,24.0
1979-03-03 16:44:57.390 ,6,1,0.,24.0,0.,24.0
1979-03-03 16:45:21.390 ,7,1,0.,24.0,0.,24.0
1979-03-03 16:45:45.390 ,7,1,0.,24.0,0.,24.0
1979-03-03 16:46:09.390 ,6,1,0.,24.0,0.,24.0
1979-03-03 16:46:33.390 ,5,1,0.,24.0,0.,24.0
1979-03-03 16:46:57.390 ,4,1,0.,24.0,0.,24.0
1979-03-03 16:47:21.390 ,3,1,0.,24.0,0.,24.0
1979-03-03 16:47:45.390 ,2,1,0.,24.0,0.,24.0
1979-03-03 16:48:09.390 ,1,1,0.,24.0,0.,24.0
1979-03-03 16:48:33.390 ,0,1,0.,24.0,0.,24.0
1979-03-03 16:48:57.390 ,0,1,0.,24.0,0.,24.0
1979-03-03 16:49:21.390 ,1,1,0.,24.0,0.,24.0
1979-03-03 16:49:45.390 ,2,1,0.,24.0,0.,24.0
1979-03-03 16:50:09.390 ,3,1,0.,24.0,0.,24.0
1979-03-03 16:50:33.390 ,4,1,0.,24.0,0.,24.0
1979-03-03 16:50:57.390 ,5,1,0.,24.0,0.,24.0
1979-03-03 16:51:21.390 ,6,1,0.,24.0,0.,24.0
1979-03-03 16:51:45.390 ,7,1,0.,24.0,0.,24.0
1979-03-03 16:52:09.390 ,7,1,0.,24.0,0.,24.0
1979-03-03 16:52:33.390 ,6,1,0.,24.0,0.,24.0
1979-03-03 16:52:57.390 ,5,1,0.,24.0,0.,24.0
1979-03-03 16:53:21.390 ,4,1,0.,24.0,0.,24.0
1979-03-03 16:53:45.390 ,3,1,0.,24.0,0.,24.0
1979-03-03 16:54:09.390 ,2,1,0.,24.0,0.,24.0
1979-03-03 16:54:33.390 ,1,1,0.,24.0,0.,24.0
1979-03-03 16:54:57.390 ,0,1,0.,24.0,0.,24.0
1979-03-03 16:55:21.390 ,0,1,0.,24.0,0.,24.0
1979-03-03 16:55:45.390 ,1,1,0.,24.0,0.,24.0
1979-03-03 16:56:09.390 ,2,1,0.,24.0,0.,24.0
1979-03-03 16:56:33.390 ,3,1,0.,24.0,0.,24.0
1979-03-03 16:56:57.390 ,4,1,1.,24.0,0.,24.0
1979-03-03 16:57:21.390 ,5,1,0.,24.0,0.,24.0
1979-03-03 16:57:45.390 ,6,1,0.,24.0,0.,24.0
1979-03-03 16:58:09.390 ,7,1,0.,24.0,0.,24.0
1979-03-03 16:58:33.390 ,7,1,0.,24.0,0.,24.0
1979-03-03 16:58:57.390 ,6,1,0.,24.0,0.,24.0
1979-03-03 16:59:21.390 ,5,1,0.,24.0,0.,24.0
1979-03-03 16:59:45.390 ,4,1,0.,24.0,0.,24.0
1979-03-03 17:00:09.390 ,3,1,0.,24.0,0.,24.0
1979-03-03 17:00:33.390 ,2,1,0.,24.0,0.,24.0
1979-03-03 17:00:57.390 ,1,1,0.,24.0,0.,24.0
1979-03-03 17:01:21.390 ,0,1,1.,24.0,0.,24.0
1979-03-03 17:01:45.390 ,0,1,0.,24.0,0.,24.0
1979-03-03 17:02:09.390 ,1,1,0.,24.0,0.,24.0
1979-03-03 17:02:33.390 ,2,1,0.,24.0,0.,24.0
1979-03-03 17:02:57.390 ,3,1,0.,24.0,0.,24.0
1979-03-03 17:03:21.390 ,4,1,0.,24.0,0.,24.0
1979-03-03 17:03:45.390 ,5,1,1.,24.0,0.,24.0
1979-03-03 17:04:09.390 ,6,1,0.,24.0,0.,24.0
1979-03-03 17:04:33.390 ,7,1,0.,24.0,0.,24.0
1979-03-03 17:04:57.390 ,7,1,0.,24.0,0.,24.0
1979-03-03 17:05:21.390 ,6,1,0.,24.0,0.,24.0
1979-03-03 17:05:45.390 ,5,1,2.,24.0,0.,24.0
1979-03-03 17:06:09.390 ,4,1,0.,24.0,0.,24.0
1979-03-03 17:06:33.390 ,3,1,0.,24.0,0.,24.0
1979-03-03 17:06:57.390 ,2,1,0.,24.0,0.,24.0
1979-03-03 17:07:21.390 ,1,1,0.,24.0,0.,24.0
1979-03-03 17:07:45.390 ,0,1,0.,24.0,0.,24.0
1979-03-03 17:08:09.390 ,0,1,0.,24.0,0.,24.0
1979-03-03 17:08:33.390 ,1,1,0.,24.0,0.,24.0
1979-03-03 17:08:57.390 ,2,1,0.,24.0,0.,24.0
1979-03-03 17:09:21.390 ,3,1,0.,24.0,0.,24.0
1979-03-03 17:09:45.390 ,4,1,0.,24.0,0.,24.0
1979-03-03 17:10:09.390 ,5,1,0.,24.0,0.,24.0
1979-03-03 17:10:33.390 ,6,1,0.,24.0,0.,24.0
1979-03-03 17:10:57.390 ,7,1,0.,24.0,0.,24.0
1979-03-03 17:11:21.390 ,7,1,0.,24.0,0.,24.0
1979-03-03 17:11:45.390 ,6,1,0.,24.0,0.,24.0
1979-03-03 17:12:09.390 ,5,1,0.,24.0,0.,24.0
1979-03-03 17:12:33.390 ,4,1,0.,24.0,0.,24.0
1979-03-03 17:12:57.390 ,3,1,1.,24.0,0.,24.0
1979-03-03 17:13:21.390 ,2,1,0.,24.0,0.,24.0
1979-03-03 17:13:45.390 ,1,1,0.,24.0,0.,24.0
1979-03-03 17:14:09.390 ,0,1,0.,24.0,0.,24.0
1979-03-03 17:14:33.390 ,0,1,0.,24.0,0.,24.0
1979-03-03 17:14:57.390 ,1,1,0.,24.0,0.,24.0
1979-03-03 17:15:21.390 ,2,1,0.,24.0,0.,24.0
1979-03-03 17:15:45.390 ,3,1,0.,24.0,0.,24.0
1979-03-03 17:16:09.390 ,4,1,0.,24.0,0.,24.0
1979-03-03 17:16:33.390 ,5,1,0.,24.0,0.,24.0
1979-03-03 17:16:57.390 ,6,1,0.,24.0,0.,24.0
1979-03-03 17:17:21.390 ,7,1,0.,24.0,0.,24.0
1979-03-03 17:17:45.390 ,7,1,0.,24.0,0.,24.0
1979-03-03 17:18:09.390 ,6,1,0.,24.0,0.,24.0
1979-03-03 17:18:33.390 ,5,1,0.,24.0,0.,24.0
1979-03-03 17:18:57.390 ,4,1,0.,24.0,0.,24.0
1979-03-03 17:19:21.390 ,3,1,0.,24.0,0.,24.0
1979-03-03 17:19:45.390 ,2,1,0.,24.0,0.,24.0
1979-03-03 17:20:09.390 ,1,1,0.,24.0,0.,24.0
1979-03-03 17:20:33.390 ,0,1,0.,24.0,0.,24.0
1979-03-03 17:20:57.390 ,0,1,1.,24.0,0.,24.0
1979-03-03 17:21:21.390 ,1,1,0.,24.0,0.,24.0
1979-03-03 17:21:45.390 ,2,1,0.,24.0,0.,24.0
1979-03-03 17:22:09.390 ,3,1,0.,24.0,0.,24.0
1979-03-03 17:22:33.390 ,4,1,1.,24.0,0.,24.0
1979-03-03 17:22:57.390 ,5,1,0.,24.0,0.,24.0
1979-03-03 17:23:21.390 ,6,1,0.,24.0,0.,24.0
1979-03-03 17:23:45.390 ,7,1,0.,24.0,0.,24.0
1979-03-03 17:24:09.390 ,7,1,0.,24.0,0.,24.0
1979-03-03 17:24:33.390 ,6,1,0.,24.0,0.,24.0
1979-03-03 17:24:57.390 ,5,1,0.,24.0,0.,24.0
1979-03-03 17:25:21.390 ,4,1,0.,24.0,0.,24.0
1979-03-03 17:25:45.390 ,3,1,0.,24.0,0.,24.0
1979-03-03 17:26:09.390 ,2,1,0.,24.0,0.,24.0
1979-03-03 17:26:33.390 ,1,1,0.,24.0,0.,24.0
1979-03-03 17:26:57.390 ,0,1,0.,24.0,0.,24.0
1979-03-03 17:27:21.390 ,0,1,0.,24.0,0.,24.0
1979-03-03 17:27:45.390 ,1,1,0.,24.0,0.,24.0
1979-03-03 17:28:09.390 ,2,1,0.,24.0,0.,24.0
1979-03-03 17:28:33.390 ,3,1,0.,24.0,0.,24.0
1979-03-03 17:28:57.390 ,4,1,0.,24.0,0.,24.0
1979-03-03 17:29:21.390 ,5,1,0.,24.0,0.,24.0
1979-03-03 17:29:45.390 ,6,1,0.,24.0,0.,24.0
1979-03-03 17:30:09.390 ,7,1,0.,24.0,0.,24.0
1979-03-03 17:30:33.390 ,7,1,0.,24.0,0.,24.0
1979-03-03 17:30:57.390 ,6,1,0.,24.0,0.,24.0
1979-03-03 17:31:21.390 ,5,1,0.,24.0,0.,24.0
1979-03-03 17:31:45.390 ,4,1,0.,24.0,0.,24.0
1979-03-03 17:32:09.390 ,3,1,0.,24.0,0.,24.0
1979-03-03 17:32:33.390 ,2,1,0.,24.0,0.,24.0
1979-03-03 17:32:57.390 ,1,1,1.,24.0,0.,24.0
1979-03-03 17:33:21.390 ,0,1,0.,24.0,0.,24.0
1979-03-03 17:33:45.390 ,0,1,1.,24.0,0.,24.0
1979-03-03 17:34:09.390 ,1,1,0.,24.0,0.,24.0
1979-03-03 17:34:33.390 ,2,1,0.,24.0,0.,24.0
1979-03-03 17:34:57.390 ,3,1,0.,24.0,0.,24.0
1979-03-03 17:35:21.390 ,4,1,0.,24.0,0.,24.0
1979-03-03 17:35:45.390 ,5,1,0.,24.0,0.,24.0
1979-03-03 17:36:09.390 ,6,1,0.,24.0,0.,24.0
1979-03-03 17:36:33.390 ,7,1,1.,24.0,0.,24.0
1979-03-03 17:36:57.390 ,7,1,0.,24.0,0.,24.0
1979-03-03 17:37:21.390 ,6,1,0.,24.0,0.,24.0
1979-03-03 17:37:45.390 ,5,1,0.,24.0,0.,24.0
1979-03-03 17:38:09.390 ,4,1,0.,24.0,0.,24.0
1979-03-03 17:38:33.390 ,3,1,0.,24.0,0.,24.0
1979-03-03 17:38:57.390 ,2,1,0.,24.0,0.,24.0
1979-03-03 17:39:21.390 ,1,1,0.,24.0,0.,24.0
1979-03-03 17:39:45.390 ,0,1,0.,24.0,0.,24.0
1979-03-03 17:40:09.390 ,0,1,0.,24.0,0.,24.0
1979-03-03 17:40:33.390 ,1,1,0.,24.0,0.,24.0
1979-03-03 17:40:57.390 ,2,1,0.,24.0,0.,24.0
1979-03-03 17:41:21.390 ,3,1,0.,24.0,0.,24.0
1979-03-03 17:41:45.390 ,4,1,0.,24.0,0.,24.0
1979-03-03 17:42:09.390 ,5,1,0.,24.0,0.,24.0
1979-03-03 17:42:57.390 ,7,1,0.,24.0,0.,24.0
1979-03-03 17:43:21.390 ,7,1,0.,24.0,0.,24.0
1979-03-03 17:43:45.390 ,6,1,0.,24.0,0.,24.0
1979-03-03 17:44:09.390 ,5,1,0.,24.0,0.,24.0
1979-03-03 17:44:33.390 ,4,1,0.,24.0,0.,24.0
1979-03-03 17:44:57.390 ,3,1,0.,24.0,0.,24.0
1979-03-03 17:45:21.390 ,2,1,0.,24.0,0.,24.0
1979-03-03 17:45:45.390 ,1,1,0.,24.0,0.,24.0
1979-03-03 17:46:09.390 ,0,1,0.,24.0,0.,24.0
1979-03-03 17:46:33.390 ,0,1,0.,24.0,0.,24.0
1979-03-03 17:46:57.390 ,1,1,0.,24.0,0.,24.0
1979-03-03 17:47:21.390 ,2,1,0.,24.0,0.,24.0
1979-03-03 17:47:45.390 ,3,1,0.,24.0,0.,24.0
1979-03-03 17:48:09.390 ,4,1,0.,24.0,0.,24.0
1979-03-03 17:48:33.390 ,5,1,0.,24.0,0.,24.0
1979-03-03 17:48:57.390 ,6,1,0.,24.0,0.,24.0
1979-03-03 17:49:21.390 ,7,1,0.,24.0,0.,24.0
1979-03-03 17:49:45.390 ,7,1,0.,24.0,0.,24.0
1979-03-03 17:50:09.390 ,6,1,0.,24.0,0.,24.0
1979-03-03 17:50:33.390 ,5,1,0.,24.0,0.,24.0
1979-03-03 17:50:57.390 ,4,1,0.,24.0,0.,24.0
1979-03-03 17:51:21.390 ,3,1,0.,24.0,0.,24.0
1979-03-03 17:51:45.390 ,2,1,0.,24.0,0.,24.0
1979-03-03 17:52:09.390 ,1,1,0.,24.0,0.,24.0
1979-03-03 17:52:33.390 ,0,1,0.,24.0,0.,24.0
1979-03-03 17:52:57.390 ,0,1,1.,24.0,0.,24.0
1979-03-03 17:53:21.390 ,1,1,0.,24.0,0.,24.0
1979-03-03 17:53:45.390 ,2,1,0.,24.0,0.,24.0
1979-03-03 17:54:09.390 ,3,1,0.,24.0,0.,24.0
1979-03-03 17:54:33.390 ,4,1,1.,24.0,0.,24.0
1979-03-03 17:54:57.390 ,5,1,0.,24.0,0.,24.0
1979-03-03 17:55:21.390 ,6,1,0.,24.0,0.,24.0
1979-03-03 17:55:45.390 ,7,1,0.,24.0,0.,24.0
1979-03-03 17:56:09.390 ,7,1,1.,24.0,0.,24.0
1979-03-03 17:56:33.390 ,6,1,0.,24.0,0.,24.0
1979-03-03 17:56:57.390 ,5,1,0.,24.0,0.,24.0
1979-03-03 17:57:21.390 ,4,1,0.,24.0,0.,24.0
1979-03-03 17:57:45.390 ,3,1,0.,24.0,0.,24.0
1979-03-03 17:58:09.390 ,2,1,0.,24.0,0.,24.0
1979-03-03 17:58:33.390 ,1,1,0.,24.0,0.,24.0
1979-03-03 17:58:57.390 ,0,1,0.,24.0,0.,24.0
1979-03-03 17:59:21.390 ,0,1,0.,24.0,0.,24.0
1979-03-03 17:59:45.390 ,1,1,0.,24.0,0.,24.0
1979-03-03 18:00:09.390 ,2,1,0.,24.0,0.,24.0
